TimeCST,TemperatureF,Dew PointF,Humidity,Sea Level PressureIn,VisibilityMPH,Wind Direction,Wind SpeedMPH,Gust SpeedMPH,PrecipitationIn,Events,Conditions,WindDirDegrees,DateUTC
12:13 AM,30.2,21.2,69,30.22,10.0,Calm,Calm,-,N/A,,Overcast,0,2012-11-14 06:13:00
12:32 AM,30.2,21.2,69,30.21,10.0,Calm,Calm,-,N/A,,Overcast,0,2012-11-14 06:32:00
12:53 AM,28.4,23.0,80,30.21,10.0,Calm,Calm,-,N/A,,Overcast,0,2012-11-14 06:53:00
1:13 AM,28.4,23.0,80,30.21,10.0,Calm,Calm,-,N/A,,Overcast,0,2012-11-14 07:13:00
1:32 AM,28.4,23.0,80,30.21,10.0,SSE,3.5,-,N/A,,Overcast,160,2012-11-14 07:32:00
1:53 AM,30.2,21.2,69,30.21,10.0,South,3.5,-,N/A,,Overcast,170,2012-11-14 07:53:00
2:12 AM,30.2,23.0,75,30.21,10.0,South,4.6,-,N/A,,Overcast,170,2012-11-14 08:12:00
2:33 AM,30.2,23.0,75,30.22,10.0,Calm,Calm,-,N/A,,Overcast,0,2012-11-14 08:33:00
2:53 AM,30.2,23.0,75,30.21,10.0,Calm,Calm,-,N/A,,Overcast,0,2012-11-14 08:53:00
3:12 AM,30.2,23.0,75,30.21,10.0,Calm,Calm,-,N/A,,Overcast,0,2012-11-14 09:12:00
3:33 AM,30.2,23.0,75,30.21,10.0,Calm,Calm,-,N/A,,Overcast,0,2012-11-14 09:33:00
3:53 AM,30.2,24.8,80,30.21,10.0,South,3.5,-,N/A,,Overcast,170,2012-11-14 09:53:00
4:12 AM,30.2,24.8,80,30.21,10.0,Calm,Calm,-,N/A,,Overcast,0,2012-11-14 10:12:00
4:33 AM,30.2,24.8,80,30.21,10.0,South,3.5,-,N/A,,Overcast,170,2012-11-14 10:33:00
4:53 AM,30.2,24.8,80,30.21,10.0,Calm,Calm,-,N/A,,Overcast,0,2012-11-14 10:53:00
5:12 AM,30.2,24.8,80,30.21,10.0,Calm,Calm,-,N/A,,Overcast,0,2012-11-14 11:12:00
5:33 AM,30.2,24.8,80,30.21,10.0,Calm,Calm,-,N/A,,Overcast,0,2012-11-14 11:33:00
5:53 AM,30.2,24.8,80,30.21,10.0,Calm,Calm,-,N/A,,Overcast,0,2012-11-14 11:53:00
6:12 AM,30.2,24.8,80,30.20,10.0,Calm,Calm,-,N/A,,Overcast,0,2012-11-14 12:12:00
6:33 AM,28.4,24.8,86,30.21,10.0,Calm,Calm,-,N/A,,Overcast,0,2012-11-14 12:33:00
6:53 AM,28.4,24.8,86,30.20,10.0,Calm,Calm,-,N/A,,Mostly Cloudy,0,2012-11-14 12:53:00
7:12 AM,26.6,23.0,86,30.20,10.0,SSE,3.5,-,N/A,,Mostly Cloudy,150,2012-11-14 13:12:00
7:33 AM,28.4,24.8,86,30.20,10.0,SSE,3.5,-,N/A,,Overcast,160,2012-11-14 13:33:00
7:53 AM,28.4,24.8,86,30.20,10.0,SSE,3.5,-,N/A,,Overcast,150,2012-11-14 13:53:00
8:12 AM,30.2,24.8,80,30.20,10.0,SSE,3.5,-,N/A,,Overcast,160,2012-11-14 14:12:00
8:33 AM,30.2,24.8,80,30.20,10.0,SSE,3.5,-,N/A,,Overcast,150,2012-11-14 14:33:00
8:53 AM,30.2,24.8,80,30.20,10.0,SSE,3.5,-,N/A,,Overcast,160,2012-11-14 14:53:00
9:12 AM,30.2,24.8,80,30.20,10.0,SSE,4.6,-,N/A,,Overcast,150,2012-11-14 15:12:00
9:33 AM,30.2,26.6,86,30.20,10.0,SSE,3.5,-,N/A,,Overcast,160,2012-11-14 15:33:00
9:53 AM,32.0,26.6,80,30.20,10.0,Calm,Calm,-,N/A,,Overcast,0,2012-11-14 15:53:00
10:12 AM,32.0,26.6,80,30.20,10.0,South,3.5,-,N/A,,Overcast,180,2012-11-14 16:12:00
10:33 AM,33.8,26.6,75,30.19,10.0,SSE,3.5,-,N/A,,Overcast,160,2012-11-14 16:33:00
10:53 AM,33.8,26.6,75,30.19,10.0,SSE,4.6,-,N/A,,Overcast,160,2012-11-14 16:53:00
11:13 AM,33.8,26.6,75,30.18,10.0,South,4.6,-,N/A,,Overcast,180,2012-11-14 17:13:00
11:33 AM,35.6,26.6,70,30.18,10.0,Calm,Calm,-,N/A,,Overcast,0,2012-11-14 17:33:00
11:52 AM,35.6,26.6,70,30.17,10.0,South,3.5,-,N/A,,Overcast,170,2012-11-14 17:52:00
12:13 PM,35.6,26.6,70,30.16,10.0,South,4.6,-,N/A,,Overcast,170,2012-11-14 18:13:00
12:33 PM,35.6,26.6,70,30.16,10.0,SSE,5.8,-,N/A,,Overcast,150,2012-11-14 18:33:00
12:52 PM,37.4,26.6,65,30.15,10.0,SSE,4.6,-,N/A,,Overcast,160,2012-11-14 18:52:00
1:13 PM,37.4,26.6,65,30.15,10.0,South,3.5,-,N/A,,Mostly Cloudy,180,2012-11-14 19:13:00
1:32 PM,37.4,28.4,70,30.14,10.0,SSE,3.5,-,N/A,,Overcast,160,2012-11-14 19:32:00
1:53 PM,37.4,26.6,65,30.14,10.0,SSE,5.8,-,N/A,,Overcast,150,2012-11-14 19:53:00
2:12 PM,37.4,26.6,65,30.13,10.0,SSE,4.6,-,N/A,,Overcast,160,2012-11-14 20:12:00
2:33 PM,37.4,28.4,70,30.13,10.0,SSE,3.5,-,N/A,,Overcast,150,2012-11-14 20:33:00
2:53 PM,37.4,26.6,65,30.12,10.0,SSE,4.6,-,N/A,,Overcast,160,2012-11-14 20:53:00
3:12 PM,37.4,26.6,65,30.12,10.0,SSE,5.8,-,N/A,,Overcast,150,2012-11-14 21:12:00
3:33 PM,39.2,26.6,61,30.11,10.0,SSE,5.8,-,N/A,,Overcast,160,2012-11-14 21:33:00
3:53 PM,39.2,26.6,61,30.11,10.0,South,6.9,-,N/A,,Mostly Cloudy,190,2012-11-14 21:53:00
4:12 PM,37.4,26.6,65,30.11,10.0,South,5.8,-,N/A,,Scattered Clouds,180,2012-11-14 22:12:00
4:33 PM,37.4,26.6,65,30.11,10.0,South,5.8,-,N/A,,Clear,180,2012-11-14 22:33:00
4:53 PM,35.6,26.6,70,30.11,10.0,South,5.8,-,N/A,,Clear,170,2012-11-14 22:53:00
5:13 PM,35.6,26.6,70,30.11,10.0,South,3.5,-,N/A,,Clear,170,2012-11-14 23:13:00
5:33 PM,33.8,26.6,75,30.11,10.0,SSE,3.5,-,N/A,,Clear,160,2012-11-14 23:33:00
5:52 PM,33.8,26.6,75,30.11,10.0,South,4.6,-,N/A,,Clear,170,2012-11-14 23:52:00
6:13 PM,33.8,26.6,75,30.11,10.0,South,4.6,-,N/A,,Clear,170,2012-11-15 00:13:00
6:33 PM,33.8,26.6,75,30.10,10.0,South,5.8,-,N/A,,Clear,170,2012-11-15 00:33:00
6:52 PM,32.0,26.6,80,30.10,10.0,South,5.8,-,N/A,,Clear,170,2012-11-15 00:52:00
7:13 PM,32.0,26.6,80,30.09,10.0,SSE,6.9,-,N/A,,Clear,160,2012-11-15 01:13:00
7:33 PM,33.8,26.6,75,30.09,10.0,South,6.9,-,N/A,,Clear,180,2012-11-15 01:33:00
7:52 PM,32.0,26.6,80,30.09,10.0,South,6.9,-,N/A,,Clear,180,2012-11-15 01:52:00
8:33 PM,33.8,26.6,75,30.09,10.0,South,5.8,-,N/A,,Clear,180,2012-11-15 02:33:00
8:52 PM,33.8,28.4,81,30.09,10.0,South,6.9,-,N/A,,Clear,180,2012-11-15 02:52:00
9:13 PM,33.8,28.4,81,30.08,10.0,South,8.1,-,N/A,,Clear,180,2012-11-15 03:13:00
9:33 PM,33.8,28.4,81,30.08,10.0,South,6.9,-,N/A,,Scattered Clouds,180,2012-11-15 03:33:00
9:52 PM,33.8,28.4,81,30.08,10.0,South,4.6,-,N/A,,Scattered Clouds,190,2012-11-15 03:52:00
10:13 PM,33.8,28.4,81,30.07,10.0,South,4.6,-,N/A,,Clear,180,2012-11-15 04:13:00
10:33 PM,35.6,28.4,75,30.06,10.0,South,8.1,-,N/A,,Clear,190,2012-11-15 04:33:00
10:52 PM,35.6,28.4,75,30.06,10.0,South,5.8,-,N/A,,Clear,190,2012-11-15 04:52:00
11:01 PM,35.6,28.4,75,30.06,10.0,SSW,6.9,-,N/A,,Clear,200,2012-11-15 05:01:00
11:36 PM,35.6,28.4,75,30.06,10.0,SSW,6.9,-,N/A,,Clear,210,2012-11-15 05:36:00
11:53 PM,35.6,28.4,75,30.06,10.0,SSW,5.8,-,N/A,,Clear,210,2012-11-15 05:53:00